[[{"header":{"parameterUnit":"m.s-1","parameterCategory":2,"la1":30.2992,"la2":30.254,"lo1":-89.0895,"lo2":-89.0443,"dy":0.0025,"dx":0.0025,"nx":19,"ny":19,"refTime":"2026-05-12T03:00:00:Z","depth":"0","parameterNumber":2,"parameterNumberName":"U-component_of_CURRENTS"},"data":[0,0,0,0.28,0.2797,0.2609,0.2608,0.2645,0.2646,0,0,0,0,0,0,0,0,0,0,0,0.2848,0.2847,0.28,0.2796,0.2609,0.2608,0.2644,0.2646,0,0,0,0,0,0,0,0,0,0,0,0.2848,0.2847,0.2846,0.2796,0.261,0.2608,0.2644,0.2709,0,0,0,0,0,0,0,0,0,0,0.2853,0.289,0.2847,0.2846,0.2795,0.261,0.2608,0.2708,0.2705,0.2819,0,0.2789,0,0.2749,0.2658,0.2658,0,0,0,0.2763,0.2892,0.2833,0.2846,0.2794,0.261,0.2684,0.2704,0.27,0.2816,0.2788,0.2788,0.2749,0.2659,0.266,0.2804,0.2804,0,0,0.2774,0.2829,0.2834,0.283,0.2752,0.2691,0.2679,0.2698,0.2712,0.2788,0.2788,0.275,0.266,0.2662,0.2803,0.2804,0,0,0,0.2826,0.2837,0.2769,0.2831,0.2791,0.2686,0.2673,0.2709,0.2684,0.2788,0.2751,0.2661,0.2663,0.2803,0.2803,0.274,0,0,0,0.283,0.2869,0.2775,0.2808,0.2789,0.2718,0.2684,0.268,0.2681,0.275,0.2661,0.2665,0.2803,0.2803,0.2741,0.2718,0,0,0,0.2855,0.2873,0.2848,0.2811,0.2744,0.2714,0.2686,0.2677,0.2664,0.2659,0.2666,0.2803,0.2803,0.2742,0.272,0.2711,0,0,0,0.292,0.285,0.285,0.2792,0.2746,0.2647,0.2684,0.2632,0.262,0.2662,0.2803,0.2803,0.2742,0.2721,0.2712,0.2624,0.2612,0,0,0.2854,0.2845,0.2811,0.2805,0.2728,0.267,0.2617,0.2626,0.268,0.2811,0.2811,0.274,0.272,0.2711,0.2659,0.2645,0,0,0,0.2805,0.2775,0.2756,0.2722,0.2671,0.2623,0.2603,0.2631,0.2687,0.2682,0.2771,0.2761,0.2757,0.2707,0.2697,0.2572,0.2806,0.2806,0.2806,0.2739,0.2731,0.2685,0.2659,0.2628,0.2599,0.2581,0.263,0.2682,0.2711,0.2731,0.2712,0.2659,0.2651,0.2523,0.2755,0.2755,0.2754,0.2754,0.2646,0.2624,0.2644,0.2591,0.2593,0.2565,0.2598,0.2618,0.2676,0.2716,0.2714,0.267,0.2635,0.2503,0.2751,0.2751,0.2752,0.2752,0.2752,0.261,0.26,0.2583,0.2556,0.2544,0.2544,0.2542,0.2578,0.2636,0.263,0.2596,0.2596,0.2462,0.2627,0.2627,0.2627,0.2627,0.2627,0.2627,0.2585,0.2569,0.2547,0.2524,0.2511,0.2493,0.2507,0.2513,0.2513,0.2533,0.2532,0.2437,0.2674,0.2658,0.2624,0.2625,0.2625,0.2625,0.2625,0.2549,0.2561,0.2513,0.2494,0.244,0.2339,0.2392,0.2346,0.2382,0.2362,0.227,0.2489,0.2505,0.2514,0.2495,0.2422,0.2422,0.2422,0.2422,0.2551,0.2548,0.2479,0.2419,0.2338,0.2259,0.2105,0.2103,0.2108,0.2078,0.2116,0.2093,0.2107,0.21,0.2117,0.2092,0.1918,0.1917,0.1916,0.2558,0.253,0.2465,0.2381,0.2272,0.2115,0.1894,0.1787,0.183,0.1887,0.1955,0.1976,0.1938,0.1971,0.1962,0.1997,0.1958,0,0]},{"header":{"parameterUnit":"m.s-1","parameterCategory":2,"la1":30.2992,"la2":30.254,"lo1":-89.0895,"lo2":-89.0443,"dy":0.0025,"dx":0.0025,"nx":19,"ny":19,"refTime":"2026-05-12T03:00:00:Z","depth":"0","parameterNumber":3,"parameterNumberName":"V-component_of_CURRENTS"},"data":[0,0,0,0.0051,0.0053,0.0161,0.0161,0.0266,0.0267,0,0,0,0,0,0,0,0,0,0,0,0.0019,0.002,0.0051,0.0053,0.016,0.0161,0.0266,0.0267,0,0,0,0,0,0,0,0,0,0,0,0.0019,0.002,0.0021,0.0053,0.016,0.0161,0.0266,0.0196,0,0,0,0,0,0,0,0,0,0,0.0096,0.0049,0.002,0.0021,0.0054,0.016,0.0161,0.0193,0.02,0.0204,0,0.0221,0,0.0238,0.0272,0.0272,0,0,0,0.0065,0.0042,0.0088,0.0021,0.0055,0.016,0.0115,0.0197,0.0205,0.0214,0.0223,0.0227,0.024,0.0272,0.0273,0.0379,0.0379,0,0,0.0059,0.0024,0.0082,0.0093,0.0082,0.0112,0.0118,0.0202,0.02,0.0223,0.0229,0.0242,0.0273,0.0274,0.0378,0.0379,0,0,0,0.0034,0.002,0.0064,0.0088,0.0106,0.0115,0.0122,0.0196,0.0216,0.0231,0.0243,0.0273,0.0274,0.0377,0.0378,0.0429,0,0,0,0.0031,0.0005,0.0061,0.0039,0.0104,0.0151,0.0114,0.021,0.022,0.0242,0.0273,0.0275,0.0377,0.0378,0.0427,0.0462,0,0,0,0.0015,0.0002,0.0019,0.0037,0.008,0.0151,0.0175,0.0213,0.0227,0.0272,0.0275,0.0376,0.0378,0.0424,0.0458,0.0497,0,0,0,-0.0029,0.0017,0.0018,0.0071,0.0079,0.018,0.0175,0.0241,0.0283,0.0274,0.0377,0.0378,0.0423,0.0455,0.0494,0.0567,0.0586,0,0,0.0015,0.0021,0.0057,0.0062,0.0161,0.0166,0.0263,0.0306,0.0303,0.0347,0.035,0.0428,0.0457,0.0496,0.0645,0.0662,0,0,0,0.0063,0.0093,0.0122,0.0173,0.0231,0.0298,0.0332,0.0349,0.0399,0.0332,0.0441,0.0459,0.0481,0.052,0.0533,0.0526,0.0384,0.0384,0.0384,0.0087,0.0132,0.0207,0.0274,0.0328,0.0391,0.0443,0.0472,0.0453,0.048,0.051,0.059,0.0632,0.0643,0.0634,0.0514,0.0514,0.0514,0.0514,0.0177,0.0234,0.0277,0.0368,0.0425,0.0499,0.0566,0.0563,0.0619,0.0579,0.0598,0.0584,0.0661,0.0646,0.0518,0.0517,0.0517,0.0516,0.0516,0.0207,0.0247,0.0293,0.0413,0.0509,0.0575,0.0691,0.0699,0.0679,0.0705,0.0735,0.0735,0.0713,0.0707,0.0707,0.0708,0.0708,0.0708,0.0708,0.0226,0.028,0.0359,0.0471,0.0551,0.0667,0.0767,0.0819,0.0842,0.0815,0.0815,0.0756,0.0649,0.0631,0.0714,0.0713,0.0712,0.0712,0.0711,0.0299,0.0303,0.0422,0.0502,0.0691,0.0841,0.0915,0.102,0.1028,0.1042,0.0938,0.0872,0.0864,0.0853,0.0841,0.0973,0.0973,0.0973,0.0973,0.033,0.0345,0.0497,0.0631,0.0803,0.0933,0.1127,0.1197,0.1145,0.1103,0.104,0.1006,0.0996,0.0992,0.0978,0.0967,0.1128,0.1128,0.1128,0.0386,0.0419,0.0533,0.0659,0.086,0.1041,0.1227,0.133,0.1229,0.1129,0.1017,0.1011,0.095,0.0934,0.0914,0.0895,0.0871,0,0]}],[{"header":{"parameterUnit":"m.s-1","parameterCategory":2,"la1":30.2992,"la2":30.254,"lo1":-89.0895,"lo2":-89.0443,"dy":0.0025,"dx":0.0025,"nx":19,"ny":19,"refTime":"2026-05-12T03:00:00:Z","depth":"2","parameterNumber":2,"parameterNumberName":"U-component_of_CURRENTS"},"data":[0,0,0,0.1793,0.1794,0.185,0.185,0.2031,0.2032,0,0,0,0,0,0,0,0,0,0,0,0.1788,0.1789,0.1793,0.1794,0.185,0.185,0.203,0.2032,0,0,0,0,0,0,0,0,0,0,0,0.1788,0.1789,0.1789,0.1794,0.185,0.185,0.203,0.1964,0,0,0,0,0,0,0,0,0,0,0.1898,0.1862,0.1789,0.1789,0.1794,0.185,0.185,0.196,0.1969,0.2032,0,0.204,0,0.2031,0.2045,0.2046,0,0,0,0.181,0.1855,0.1876,0.1789,0.1795,0.1849,0.1829,0.1964,0.1974,0.2043,0.2042,0.2047,0.2034,0.2047,0.2048,0.2148,0.2148,0,0,0.1806,0.1797,0.1869,0.1881,0.1812,0.1827,0.183,0.1969,0.1979,0.2042,0.2051,0.2037,0.2048,0.2049,0.2149,0.2148,0,0,0,0.1787,0.1795,0.1811,0.1875,0.1871,0.1828,0.1832,0.1973,0.198,0.2052,0.2039,0.2049,0.2052,0.2149,0.2148,0.2161,0,0,0,0.1786,0.1783,0.1809,0.1804,0.1868,0.1904,0.1834,0.1971,0.1985,0.2038,0.2049,0.2053,0.2149,0.2149,0.2161,0.215,0,0,0,0.1785,0.1782,0.179,0.1804,0.1819,0.1901,0.1916,0.1973,0.1977,0.2046,0.2054,0.215,0.2149,0.2162,0.2151,0.2159,0,0,0,0.1773,0.1768,0.179,0.179,0.1819,0.1858,0.1914,0.1959,0.2014,0.205,0.2149,0.2149,0.2162,0.2151,0.216,0.2068,0.2059,0,0,0.1753,0.1765,0.1766,0.1787,0.181,0.1851,0.1894,0.1988,0.2021,0.2116,0.2118,0.2161,0.2151,0.2159,0.2017,0.2009,0,0,0,0.1751,0.1757,0.1769,0.179,0.1826,0.1879,0.195,0.1988,0.2062,0.2045,0.2139,0.2132,0.2138,0.2082,0.2076,0.2144,0.2144,0.2145,0.2145,0.1721,0.1743,0.175,0.1792,0.1832,0.1907,0.1953,0.2015,0.2066,0.2083,0.2127,0.2117,0.2056,0.2051,0.2118,0.2118,0.2118,0.2118,0.2118,0.1689,0.1685,0.1741,0.1759,0.1832,0.1887,0.1989,0.2028,0.2096,0.2113,0.212,0.2078,0.2045,0.2119,0.2119,0.2118,0.2118,0.2118,0.2118,0.166,0.1655,0.1685,0.1725,0.1792,0.1883,0.1947,0.203,0.2089,0.2105,0.2055,0.2053,0.2135,0.2121,0.2121,0.2121,0.2121,0.2121,0.2121,0.1601,0.1626,0.1643,0.1693,0.1732,0.181,0.1933,0.1976,0.2022,0.2039,0.2039,0.2118,0.2118,0.2134,0.2121,0.2121,0.2121,0.2121,0.2121,0.1557,0.1578,0.1588,0.1621,0.1682,0.1683,0.182,0.1864,0.1925,0.1911,0.2002,0.2005,0.1991,0.1994,0.2006,0.1961,0.1961,0.1961,0.1961,0.1536,0.154,0.1548,0.1563,0.1589,0.1625,0.1584,0.1614,0.1722,0.1746,0.1756,0.1725,0.1737,0.1708,0.1718,0.1724,0.1605,0.1604,0.1603,0.1532,0.1526,0.1519,0.1514,0.1534,0.152,0.1412,0.1295,0.137,0.1589,0.1687,0.1939,0.1919,0.1927,0.1904,0.1911,0.193,0,0]},{"header":{"parameterUnit":"m.s-1","parameterCategory":2,"la1":30.2992,"la2":30.254,"lo1":-89.0895,"lo2":-89.0443,"dy":0.0025,"dx":0.0025,"nx":19,"ny":19,"refTime":"2026-05-12T03:00:00:Z","depth":"2","parameterNumber":3,"parameterNumberName":"V-component_of_CURRENTS"},"data":[0,0,0,0.0256,0.0256,0.0268,0.0268,0.0328,0.0329,0,0,0,0,0,0,0,0,0,0,0,0.0257,0.0257,0.0256,0.0256,0.0268,0.0268,0.0328,0.0329,0,0,0,0,0,0,0,0,0,0,0,0.0257,0.0257,0.0257,0.0256,0.0268,0.0268,0.0328,0.031,0,0,0,0,0,0,0,0,0,0,0.0294,0.028,0.0257,0.0257,0.0256,0.0268,0.0268,0.0309,0.0311,0.0333,0,0.0332,0,0.0327,0.0333,0.0333,0,0,0,0.0265,0.0278,0.0283,0.0257,0.0256,0.0268,0.0265,0.031,0.0313,0.0336,0.0332,0.0334,0.0328,0.0334,0.0334,0.0422,0.0423,0,0,0.0264,0.0259,0.0281,0.0285,0.0256,0.0264,0.0265,0.0311,0.0313,0.0332,0.0335,0.0329,0.0334,0.0335,0.0422,0.0422,0,0,0,0.0256,0.0259,0.0262,0.0283,0.0279,0.0264,0.0265,0.0311,0.0312,0.0336,0.0329,0.0334,0.0335,0.0421,0.0422,0.0462,0,0,0,0.0256,0.0254,0.0262,0.026,0.0277,0.0287,0.0264,0.0309,0.0314,0.0329,0.0334,0.0336,0.0421,0.0422,0.046,0.0488,0,0,0,0.0257,0.0253,0.0254,0.0259,0.026,0.0286,0.029,0.031,0.031,0.0333,0.0336,0.042,0.0421,0.0458,0.0484,0.0514,0,0,0,0.0253,0.0269,0.0254,0.0278,0.026,0.0298,0.029,0.0318,0.034,0.0335,0.0421,0.0422,0.0457,0.0482,0.0511,0.0545,0.0559,0,0,0.0277,0.0272,0.029,0.0277,0.0326,0.0297,0.0352,0.037,0.0367,0.0409,0.0411,0.046,0.0484,0.0513,0.0613,0.0624,0,0,0,0.0301,0.0315,0.0328,0.0349,0.0363,0.039,0.0393,0.04,0.0436,0.0382,0.0473,0.0487,0.0504,0.052,0.0529,0.0428,0.0427,0.0427,0.0427,0.033,0.0349,0.0393,0.0419,0.0442,0.0459,0.0483,0.0495,0.048,0.0501,0.0529,0.0592,0.061,0.0618,0.0533,0.0533,0.0533,0.0533,0.0533,0.039,0.0424,0.0448,0.0497,0.052,0.0559,0.0585,0.0576,0.0613,0.0583,0.0596,0.0573,0.063,0.0537,0.0536,0.0536,0.0535,0.0535,0.0535,0.042,0.0442,0.0468,0.0541,0.0602,0.0629,0.07,0.069,0.0665,0.0682,0.0691,0.069,0.0613,0.0684,0.0684,0.0684,0.0685,0.0685,0.0685,0.044,0.0472,0.0525,0.0596,0.0651,0.0723,0.077,0.0791,0.0783,0.0752,0.0752,0.0643,0.0638,0.0623,0.0689,0.0688,0.0688,0.0688,0.0687,0.0489,0.0496,0.058,0.0636,0.0765,0.086,0.0893,0.0927,0.092,0.0916,0.0789,0.0785,0.0777,0.0769,0.0757,0.0854,0.0854,0.0854,0.0854,0.0515,0.0526,0.0636,0.0733,0.0849,0.0928,0.1029,0.1027,0.0961,0.0896,0.0894,0.0862,0.0855,0.0848,0.0838,0.0826,0.0941,0.0941,0.0941,0.0554,0.0582,0.0662,0.0753,0.0891,0.0998,0.1083,0.1062,0.0945,0.0942,0.0882,0.0865,0.0811,0.0803,0.0783,0.0771,0.0748,0,0]}],[{"header":{"parameterUnit":"m.s-1","parameterCategory":2,"la1":30.2992,"la2":30.254,"lo1":-89.0895,"lo2":-89.0443,"dy":0.0025,"dx":0.0025,"nx":19,"ny":19,"refTime":"2026-05-12T03:00:00:Z","depth":"4","parameterNumber":2,"parameterNumberName":"U-component_of_CURRENTS"},"data":[0,0,0,0.1017,0.1021,0.1195,0.1196,0.1236,0.1236,0,0,0,0,0,0,0,0,0,0,0,0.0961,0.0963,0.1017,0.1021,0.1195,0.1196,0.1236,0.1236,0,0,0,0,0,0,0,0,0,0,0,0.0961,0.0962,0.0964,0.1022,0.1195,0.1196,0.1236,0.1151,0,0,0,0,0,0,0,0,0,0,0.1005,0.0979,0.0962,0.0964,0.1023,0.1195,0.1196,0.1149,0.1156,0.1104,0,0.1141,0,0.1181,0.1234,0.1234,0,0,0,0.1026,0.0973,0.1018,0.0964,0.1024,0.1195,0.1118,0.1155,0.1163,0.1112,0.1142,0.1145,0.1182,0.1234,0.1234,0.1276,0.1276,0,0,0.1016,0.099,0.1013,0.1023,0.1079,0.1112,0.1123,0.1162,0.117,0.1143,0.1147,0.1183,0.1234,0.1234,0.1275,0.1276,0,0,0,0.0985,0.0983,0.1031,0.102,0.1063,0.1117,0.113,0.1169,0.1185,0.1148,0.1183,0.1234,0.1233,0.1274,0.1275,0.1329,0,0,0,0.098,0.0965,0.1026,0.1012,0.1063,0.1143,0.1136,0.1183,0.1189,0.1183,0.1234,0.1233,0.1274,0.1275,0.1326,0.1328,0,0,0,0.0952,0.0961,0.0985,0.101,0.1084,0.1144,0.1165,0.1187,0.1209,0.1234,0.1233,0.1273,0.1275,0.1323,0.1324,0.135,0,0,0,0.0913,0.0948,0.0985,0.1029,0.1082,0.117,0.1165,0.1236,0.1265,0.1233,0.1274,0.1275,0.1323,0.1322,0.1348,0.115,0,0,0,0.0929,0.095,0.0972,0.1009,0.108,0.1146,0.1227,0.1267,0.1266,0.1246,0.1249,0.1327,0.1324,0.135,0.1247,0,0,0,0,0.0958,0.0977,0.1003,0.1059,0.1127,0.1209,0.1272,0.1294,0.1341,0.1291,0.1345,0.1341,0.1355,0.1235,0.1283,0.1283,0.1283,0.1282,0.1282,0.0938,0.0979,0.1019,0.1086,0.1148,0.1261,0.1322,0.1366,0.1362,0.1403,0.1399,0.1471,0.1349,0.1426,0.1426,0.1426,0.1426,0.1427,0.1427,0.0944,0.0962,0.1026,0.1083,0.1173,0.1256,0.1362,0.1406,0.1472,0.1457,0.147,0.1317,0.1432,0.1431,0.143,0.143,0.1429,0.1429,0.1429,0.0911,0.0926,0.0974,0.1059,0.1154,0.127,0.1357,0.1452,0.1501,0.154,0.1412,0.1503,0.1481,0.156,0.1561,0.1561,0.1561,0.1561,0.1561,0.0857,0.0903,0.0943,0.1036,0.1095,0.1206,0.1368,0.142,0.1507,0.1439,0.156,0.1516,0.1511,0.1489,0.1564,0.1563,0.1563,0.1563,0.1562,0.0818,0.0845,0.0891,0.094,0.1057,0.1118,0.1284,0.1341,0.1381,0.1356,0.138,0.1388,0.1343,0.1343,0.1312,0.1337,0.1335,0.1333,0,0.0779,0.0799,0.0843,0.089,0.0948,0.1059,0.1081,0.1164,0.1232,0.1185,0.1382,0.1408,0.1412,0.136,0.1356,0.1319,0,0,0,0.0753,0.0771,0.078,0.0833,0.0886,0.0958,0.1081,0.1066,0.1215,0.1196,0.1275,0.129,0.146,0.1571,0.1521,0.1516,0.1476,0,0]},{"header":{"parameterUnit":"m.s-1","parameterCategory":2,"la1":30.2992,"la2":30.254,"lo1":-89.0895,"lo2":-89.0443,"dy":0.0025,"dx":0.0025,"nx":19,"ny":19,"refTime":"2026-05-12T03:00:00:Z","depth":"4","parameterNumber":3,"parameterNumberName":"V-component_of_CURRENTS"},"data":[0,0,0,0.0246,0.0245,0.025,0.0251,0.029,0.0291,0,0,0,0,0,0,0,0,0,0,0,0.0252,0.0252,0.0246,0.0245,0.025,0.0251,0.029,0.0291,0,0,0,0,0,0,0,0,0,0,0,0.0252,0.0252,0.0252,0.0245,0.025,0.0251,0.029,0.028,0,0,0,0,0,0,0,0,0,0,0.0272,0.0268,0.0252,0.0252,0.0245,0.025,0.0251,0.028,0.0281,0.0294,0,0.0293,0,0.0286,0.0293,0.0293,0,0,0,0.0255,0.0267,0.0267,0.0252,0.0245,0.025,0.0251,0.028,0.0282,0.0296,0.0294,0.0295,0.0286,0.0293,0.0294,0.0351,0.0351,0,0,0.0255,0.0255,0.0265,0.0267,0.0245,0.0251,0.0251,0.0281,0.0283,0.0294,0.0295,0.0287,0.0294,0.0294,0.0351,0.0351,0,0,0,0.0248,0.0255,0.0254,0.0266,0.0261,0.0251,0.0251,0.0282,0.0281,0.0296,0.0288,0.0294,0.0294,0.035,0.0351,0.0391,0,0,0,0.0248,0.025,0.0254,0.0255,0.026,0.0266,0.0252,0.028,0.0282,0.0287,0.0294,0.0295,0.035,0.035,0.0389,0.0411,0,0,0,0.0252,0.025,0.025,0.0255,0.0251,0.0265,0.0266,0.028,0.0277,0.0293,0.0295,0.035,0.035,0.0387,0.0408,0.0426,0,0,0,0.0253,0.0263,0.025,0.0265,0.0251,0.0275,0.0266,0.0286,0.0302,0.0294,0.035,0.0351,0.0387,0.0406,0.0424,0.0403,0,0,0,0.0268,0.0264,0.0276,0.0265,0.0295,0.0275,0.0314,0.0327,0.0319,0.0343,0.0344,0.039,0.0408,0.0425,0.0452,0,0,0,0,0.0283,0.0294,0.0301,0.0314,0.0322,0.0343,0.0344,0.0347,0.0371,0.0329,0.0395,0.0406,0.0415,0.0398,0.0355,0.0355,0.0355,0.0354,0.0354,0.0306,0.0317,0.0348,0.0366,0.0382,0.0394,0.0412,0.0418,0.0405,0.042,0.0442,0.049,0.0474,0.0444,0.0444,0.0444,0.0444,0.0445,0.0445,0.0345,0.0366,0.0389,0.0424,0.0443,0.0476,0.049,0.0484,0.0507,0.0484,0.0491,0.0447,0.0449,0.0448,0.0447,0.0447,0.0447,0.0446,0.0446,0.0363,0.0377,0.0402,0.0459,0.0511,0.0534,0.0581,0.0575,0.0552,0.0565,0.0537,0.0518,0.0509,0.0566,0.0566,0.0567,0.0567,0.0567,0.0567,0.0369,0.0397,0.0441,0.0501,0.0549,0.0603,0.0637,0.0643,0.0619,0.0587,0.0578,0.053,0.0526,0.0516,0.057,0.0569,0.0569,0.0569,0.0568,0.0388,0.0403,0.047,0.052,0.0623,0.0659,0.0696,0.0679,0.0681,0.0647,0.0592,0.059,0.0572,0.0567,0.0558,0.0626,0.0626,0.0626,0,0.0397,0.041,0.0499,0.0578,0.0653,0.0693,0.0706,0.0703,0.0653,0.0637,0.0666,0.0605,0.0602,0.0582,0.0577,0.0567,0,0,0,0.0414,0.0441,0.0501,0.0579,0.0667,0.0685,0.0706,0.0689,0.0663,0.0651,0.0624,0.0624,0.0614,0.0579,0.0547,0.0542,0.0524,0,0]}]]